Probability
0 0 0 0 0 0 0 0 0 0 0 0 0 0 0 0 0 0 0 0 0 3 23 45 52 48 52 48 39 35 42 42 45 45 39 39 45 45 45 42 39 42 45 48 42 42 39 35 32
0 0 0 0 0 0 0 0 0 0 0 0 0 0 0 0 0 0 0 0 3 10 23 35 52 45 45 42 39 42 39 39 39 42 42 42 39 35 42 42 35 39 35 39 39 39 35 32 32
0 0 0 0 0 0 0 0 0 0 0 0 0 0 0 0 0 0 0 3 3 10 19 35 45 45 42 39 35 32 35 35 39 35 35 42 42 42 42 42 35 32 29 35 39 32 35 32 29
0 0 0 0 0 0 0 0 0 0 0 0 0 0 0 0 0 0 0 6 6 13 19 32 45 42 39 39 35 35 35 32 32 32 32 35 35 35 42 39 35 32 35 35 32 32 32 35 29
0 0 0 0 0 0 0 0 0 0 0 0 0 0 0 0 0 0 3 10 6 6 16 29 32 32 32 35 32 35 35 26 32 32 29 29 29 35 35 32 35 35 32 29 26 29 26 29 26
0 0 0 0 0 0 0 0 0 0 0 0 0 0 0 0 0 0 3 6 6 6 13 26 29 29 29 26 23 23 29 26 23 29 32 29 23 23 29 29 26 32 32 35 32 23 23 29 23
0 0 0 0 0 0 0 0 0 0 0 0 0 0 0 0 0 0 0 3 6 6 13 19 26 26 26 26 19 19 19 23 26 23 23 23 26 23 26 26 23 26 26 32 29 19 23 23 26
0 0 0 0 0 0 0 0 0 0 0 0 0 0 0 0 0 0 3 6 6 6 10 13 13 19 16 16 16 13 13 13 10 16 10 6 6 16 16 19 19 19 23 29 26 26 19 16 19
0 0 0 0 0 0 0 0 0 0 0 0 0 0 0 0 3 3 3 3 6 6 6 6 6 6 10 6 6 6 6 6 6 0 3 0 0 0 0 0 3 6 13 16 19 19 16 10 6
0 0 0 0 0 0 0 0 0 0 0 0 0 0 0 0 3 3 3 3 3 3 6 3 6 6 3 6 6 0 0 0 0 0 0 0 0 0 0 0 0 3 3 6 3 3 3 6 0
0 0 0 0 0 0 0 0 0 0 0 0 0 0 0 0 3 3 3 3 3 0 0 3 3 3 3 3 0 0 0 0 0 0 0 0 0 0 0 0 0 0 0 0 0 0 0 0 0
0 0 0 0 0 0 0 0 0 0 0 0 0 0 0 0 3 3 3 3 0 0 0 3 0 3 3 0 0 0 0 0 0 0 0 0 0 0 0 0 0 0 0 0 0 0 0 0 0
0 0 0 0 0 0 0 0 0 0 0 0 0 0 0 0 0 0 0 0 0 0 0 0 0 0 3 0 0 0 0 0 0 0 0 0 0 0 0 0 0 0 0 0 0 0 0 0 0
0 0 0 0 0 0 0 0 0 0 0 0 0 0 0 0 0 0 0 0 0 0 0 0 0 0 0 0 0 0 0 0 0 0 0 0 0 0 0 0 0 0 0 0 0 0 0 0 0
0 0 0 0 0 0 0 0 0 0 0 0 0 0 0 0 0 0 0 0 0 0 0 0 0 0 0 0 0 0 0 0 0 0 0 0 0 0 0 0 0 0 0 0 0 0 0 0 0
0 0 0 0 0 0 0 0 0 0 0 0 0 0 0 0 0 0 0 0 0 0 0 0 0 0 0 0 0 0 0 0 0 0 0 0 0 0 0 0 0 0 0 0 0 0 0 0 0
0 0 0 0 0 0 0 0 0 0 0 0 0 0 0 0 0 0 0 0 3 3 0 0 0 0 0 0 0 0 0 0 0 0 0 0 0 0 0 0 0 0 0 0 0 0 0 0 0
0 0 0 0 0 0 0 0 0 0 0 0 0 0 0 0 0 0 0 3 3 3 0 0 0 0 0 0 0 0 0 0 0 0 0 0 0 0 0 0 0 0 0 0 0 0 0 0 0
0 0 0 0 0 0 0 0 0 0 0 0 0 0 0 0 0 0 0 0 0 0 0 0 0 0 0 0 0 0 0 0 0 0 0 0 0 0 0 0 0 0 0 0 0 0 0 0 0
0 0 0 0 0 0 0 0 0 0 0 0 0 0 0 0 0 0 0 0 0 0 0 3 3 0 0 0 0 0 0 0 0 0 0 0 0 0 0 0 0 0 0 0 0 0 0 0 0
0 0 0 0 0 0 0 0 0 0 0 0 0 0 0 0 0 0 0 0 0 0 0 3 3 3 0 0 0 0 0 0 0 0 0 0 0 0 0 0 0 0 0 0 0 0 0 0 0
0 0 0 0 0 0 0 0 0 0 0 0 0 0 0 0 0 0 0 0 0 0 3 3 3 3 0 0 0 0 0 0 0 0 0 0 0 0 0 0 0 0 0 0 0 0 0 0 0
0 0 0 0 0 0 0 0 0 0 0 0 0 0 0 0 0 0 0 0 0 0 3 3 3 3 0 0 0 0 0 0 0 0 0 0 0 0 0 0 0 0 0 0 0 0 0 0 0
0 0 0 0 0 0 0 0 0 0 0 0 0 0 0 0 0 0 0 0 0 0 0 3 3 3 0 0 0 0 0 0 0 0 0 0 0 0 0 0 0 0 0 0 0 0 0 0 0
0 0 0 0 0 0 0 0 0 0 0 0 0 0 0 0 0 0 0 0 0 0 0 3 3 0 0 0 0 0 0 0 0 0 0 0 0 0 0 0 0 0 0 0 0 0 0 0 0
0 0 0 0 0 0 0 0 0 0 0 0 0 0 0 0 0 0 0 0 0 0 0 3 0 0 0 0 0 0 0 0 0 0 0 0 0 0 0 0 0 0 0 0 0 0 0 0 0
0 0 0 0 0 0 0 0 0 0 0 0 0 0 0 0 0 0 0 0 0 0 0 0 0 0 0 0 0 0 0 0 0 0 0 0 0 0 0 0 0 0 0 0 0 0 0 0 0
0 0 0 0 0 0 0 0 0 0 0 0 0 0 0 0 0 0 0 0 0 0 0 0 0 0 0 0 0 0 0 0 0 0 0 0 0 0 0 0 0 0 0 0 0 0 0 0 0
0 0 0 0 0 0 0 0 0 0 0 0 0 0 0 0 0 0 0 0 0 0 0 0 0 0 0 0 0 0 0 0 0 0 0 0 0 0 0 0 0 0 0 0 0 0 0 0 0
0 0 0 0 0 0 0 0 0 0 0 0 0 0 0 0 0 0 0 0 0 0 0 0 0 0 0 0 0 0 0 0 0 0 0 0 0 0 0 0 0 0 0 0 0 0 0 0 0
Height
5794 5795 5797 5798 5800 5802 5804 5807 5808 5810 5811 5812 5814 5816 5818 5820 5822 5826 5826 5827 5828 5829 5830 5832 5833 5835 5836 5837 5838 5840 5841 5842 5843 5844 5845 5846 5847 5848 5849 5850 5851 5852 5852 5853 5854 5855 5855 5856 5856
5790 5791 5793 5794 5795 5797 5801 5803 5804 5805 5806 5808 5810 5812 5814 5816 5818 5819 5821 5822 5824 5825 5827 5828 5829 5831 5832 5834 5835 5836 5837 5838 5840 5841 5842 5843 5844 5845 5846 5847 5848 5848 5849 5850 5851 5852 5852 5853 5853
5785 5786 5788 5789 5791 5794 5796 5798 5799 5800 5802 5804 5806 5807 5809 5812 5813 5815 5817 5818 5820 5821 5823 5824 5825 5827 5828 5829 5831 5832 5833 5835 5836 5837 5838 5839 5840 5841 5842 5843 5844 5845 5846 5847 5848 5848 5849 5849 5850
5781 5782 5784 5785 5787 5789 5791 5792 5793 5795 5797 5799 5801 5803 5805 5807 5809 5810 5812 5814 5815 5817 5818 5820 5821 5822 5824 5825 5827 5828 5829 5831 5832 5833 5834 5835 5837 5838 5839 5840 5840 5841 5842 5843 5844 5844 5845 5846 5846
5776 5778 5779 5780 5782 5784 5785 5787 5788 5790 5792 5794 5796 5798 5800 5802 5804 5805 5807 5809 5810 5812 5814 5815 5816 5818 5819 5821 5822 5824 5825 5826 5828 5829 5830 5831 5832 5833 5834 5835 5836 5837 5838 5839 5840 5840 5841 5841 5842
5772 5773 5775 5776 5777 5779 5780 5781 5783 5784 5786 5788 5790 5792 5795 5797 5798 5800 5802 5804 5805 5807 5809 5810 5811 5813 5814 5816 5817 5819 5820 5821 5823 5824 5825 5826 5827 5828 5829 5830 5831 5832 5833 5834 5835 5835 5836 5837 5837
5768 5768 5769 5771 5772 5773 5775 5775 5777 5779 5780 5782 5784 5786 5789 5791 5792 5794 5796 5798 5799 5801 5803 5805 5806 5807 5809 5810 5812 5813 5815 5816 5817 5819 5820 5821 5822 5823 5824 5825 5826 5827 5828 5829 5830 5830 5831 5831 5832
5762 5764 5764 5766 5767 5768 5769 5770 5771 5773 5775 5776 5778 5780 5783 5785 5786 5788 5790 5791 5793 5795 5797 5799 5800 5801 5803 5804 5806 5807 5809 5810 5811 5813 5814 5815 5816 5817 5818 5819 5820 5821 5822 5823 5824 5825 5825 5826 5826
5756 5759 5760 5761 5762 5763 5763 5764 5766 5767 5769 5770 5772 5774 5776 5778 5780 5781 5783 5785 5787 5789 5790 5792 5794 5795 5797 5798 5799 5801 5802 5804 5805 5806 5807 5809 5810 5811 5812 5813 5814 5815 5816 5816 5817 5818 5819 5819 5820
5751 5753 5755 5755 5756 5757 5757 5758 5760 5761 5763 5764 5765 5767 5769 5771 5773 5775 5777 5778 5780 5782 5783 5785 5787 5788 5790 5792 5793 5794 5796 5797 5798 5800 5801 5802 5803 5804 5805 5806 5807 5808 5808 5809 5810 5811 5812 5812 5813
5745 5748 5749 5749 5750 5751 5752 5753 5754 5755 5757 5758 5759 5760 5762 5764 5766 5768 5769 5771 5773 5774 5776 5778 5780 5781 5783 5785 5786 5787 5789 5790 5791 5792 5793 5795 5796 5796 5797 5798 5799 5800 5801 5802 5802 5803 5804 5805 5805
5740 5741 5742 5743 5743 5744 5745 5747 5748 5749 5751 5751 5752 5753 5755 5756 5758 5760 5762 5764 5765 5767 5769 5771 5772 5774 5775 5777 5778 5780 5781 5782 5783 5785 5786 5787 5788 5789 5789 5790 5791 5792 5793 5794 5794 5795 5795 5796 5797
5733 5735 5736 5736 5737 5738 5739 5740 5741 5743 5743 5744 5745 5746 5748 5749 5751 5753 5754 5756 5757 5759 5761 5763 5764 5766 5767 5769 5770 5772 5773 5774 5776 5776 5777 5779 5780 5780 5781 5782 5782 5783 5784 5784 5785 5786 5787 5787 5788
5726 5728 5729 5730 5730 5731 5732 5733 5734 5737 5735 5736 5737 5739 5740 5741 5742 5744 5746 5748 5749 5751 5753 5754 5756 5758 5759 5760 5762 5763 5765 5766 5767 5768 5769 5769 5770 5771 5772 5772 5773 5773 5774 5774 5775 5776 5777 5778 5779
5718 5720 5722 5723 5723 5724 5725 5727 5728 5728 5727 5728 5729 5731 5732 5733 5734 5736 5737 5739 5741 5743 5745 5746 5748 5749 5750 5752 5753 5754 5756 5757 5758 5759 5759 5760 5760 5761 5762 5762 5763 5763 5763 5764 5764 5765 5766 5767 5768
5711 5712 5714 5716 5716 5716 5718 5720 5721 5719 5719 5720 5721 5721 5722 5724 5725 5727 5728 5730 5732 5734 5736 5737 5739 5740 5741 5742 5744 5745 5746 5747 5748 5748 5749 5749 5750 5750 5751 5751 5752 5752 5752 5752 5753 5754 5755 5756 5757
5702 5704 5706 5708 5708 5708 5709 5711 5712 5711 5711 5711 5712 5712 5713 5714 5716 5717 5719 5721 5723 5724 5726 5728 5729 5731 5732 5733 5734 5735 5736 5736 5737 5738 5738 5738 5739 5739 5739 5740 5740 5740 5740 5740 5741 5741 5742 5743 5744
5694 5695 5697 5698 5699 5699 5700 5702 5702 5702 5702 5702 5702 5703 5704 5705 5707 5708 5709 5711 5713 5715 5716 5718 5719 5721 5721 5722 5723 5724 5725 5725 5726 5726 5727 5727 5727 5727 5727 5727 5727 5727 5727 5728 5728 5728 5729 5730 5730
5684 5686 5688 5689 5689 5690 5691 5692 5693 5692 5693 5693 5694 5694 5695 5697 5698 5699 5700 5701 5703 5705 5707 5708 5709 5710 5711 5711 5712 5713 5714 5714 5715 5715 5715 5715 5714 5714 5714 5714 5714 5713 5713 5714 5714 5714 5715 5716 5716
5675 5676 5678 5680 5679 5680 5681 5683 5684 5684 5685 5685 5685 5686 5687 5688 5689 5690 5690 5691 5693 5695 5696 5698 5699 5699 5700 5701 5701 5702 5702 5703 5703 5703 5702 5702 5701 5700 5700 5699 5699 5699 5699 5699 5699 5699 5700 5701 5701
5665 5667 5669 5669 5669 5669 5671 5674 5676 5676 5675 5676 5676 5677 5677 5678 5679 5680 5680 5681 5682 5684 5686 5687 5688 5688 5689 5689 5689 5689 5690 5690 5690 5690 5690 5689 5688 5687 5686 5684 5683 5683 5683 5684 5683 5683 5684 5685 5686
5655 5657 5658 5658 5658 5659 5661 5661 5667 5667 5667 5667 5667 5668 5668 5669 5670 5670 5670 5671 5672 5673 5674 5675 5676 5676 5677 5677 5677 5677 5677 5677 5678 5677 5677 5676 5674 5673 5671 5670 5668 5668 5668 5668 5667 5667 5667 5668 5670
5645 5646 5647 5647 5647 5648 5650 5650 5656 5657 5658 5658 5658 5658 5659 5659 5660 5660 5660 5661 5661 5662 5663 5663 5664 5664 5664 5664 5664 5664 5664 5664 5664 5663 5663 5662 5660 5658 5656 5655 5653 5653 5652 5651 5651 5650 5650 5650 5652
5633 5635 5636 5636 5636 5638 5641 5640 5643 5647 5648 5648 5649 5649 5649 5649 5650 5650 5650 5650 5650 5650 5651 5651 5651 5652 5652 5651 5651 5650 5650 5649 5649 5648 5648 5647 5645 5643 5642 5640 5638 5637 5636 5635 5634 5633 5633 5634 5635
5623 5625 5625 5625 5625 5628 5630 5630 5633 5636 5638 5638 5638 5638 5638 5639 5639 5639 5639 5639 5639 5639 5639 5638 5638 5639 5639 5638 5637 5636 5635 5634 5633 5633 5632 5631 5630 5628 5626 5624 5623 5621 5620 5619 5618 5617 5617 5618 5619
5612 5614 5616 5616 5616 5617 5619 5620 5624 5625 5626 5627 5627 5627 5627 5627 5627 5627 5627 5627 5627 5627 5626 5626 5626 5626 5626 5625 5624 5623 5621 5620 5619 5617 5616 5615 5613 5612 5610 5609 5607 5606 5605 5604 5603 5603 5603 5603 5604
5601 5603 5605 5605 5604 5605 5607 5610 5614 5615 5615 5616 5616 5616 5615 5615 5616 5616 5616 5615 5615 5615 5614 5614 5614 5614 5613 5612 5610 5609 5607 5605 5604 5602 5600 5599 5598 5596 5595 5593 5592 5591 5589 5589 5588 5588 5589 5589 5590
5591 5593 5594 5594 5593 5594 5596 5600 5604 5605 5605 5605 5605 5605 5604 5604 5604 5604 5604 5603 5603 5603 5603 5603 5602 5601 5600 5599 5597 5595 5593 5591 5589 5587 5585 5584 5583 5582 5581 5579 5578 5576 5575 5574 5574 5574 5575 5575 5577
5581 5583 5583 5583 5584 5585 5586 5592 5593 5594 5594 5595 5594 5594 5594 5594 5593 5593 5593 5592 5592 5591 5591 5590 5590 5589 5588 5586 5584 5582 5580 5577 5575 5573 5571 5570 5569 5569 5567 5566 5564 5563 5562 5562 5561 5562 5562 5563 5564
5569 5572 5573 5574 5575 5575 5576 5583 5583 5584 5583 5583 5583 5583 5582 5582 5582 5582 5582 5581 5581 5580 5579 5579 5578 5577 5575 5574 5572 5569 5567 5564 5562 5560 5559 5558 5557 5556 5555 5553 5552 5551 5550 5550 5549 5550 5550 5551 5552
Wind_Speed
23 24 24 25 26 26 24 23 24 24 24 24 24 24 24 24 24 24 22 21 21 21 21 21 21 20 20 19 18 18 18 17 17 16 16 16 16 16 16 16 16 16 16 16 15 15 15 14 15
23 24 25 26 27 25 24 24 25 25 26 25 25 25 24 24 24 24 23 22 22 22 22 22 22 22 22 22 21 20 20 19 19 18 18 18 18 18 17 18 17 17 17 17 17 17 16 16 16
24 25 26 27 27 25 25 25 26 27 27 27 27 26 25 24 24 24 24 24 24 23 23 24 24 24 24 24 23 22 22 21 21 21 20 20 20 20 20 20 19 19 19 19 19 18 19 18 18
24 25 26 27 26 26 26 26 27 28 28 28 28 28 27 26 26 26 25 25 25 25 25 25 25 25 25 25 25 24 24 24 23 23 23 22 22 22 22 22 22 22 21 21 21 21 21 21 21
25 25 26 25 25 26 27 27 28 29 29 29 30 29 29 29 28 28 28 27 27 27 27 27 27 27 27 26 26 26 26 25 25 25 24 24 24 24 24 24 24 24 24 24 24 24 23 23 23
24 25 24 24 24 26 27 28 28 29 30 30 31 31 30 31 31 31 31 30 30 30 29 29 29 29 29 28 28 28 28 27 27 27 26 26 26 26 26 26 26 26 26 26 26 26 26 25 25
24 24 24 23 24 25 26 28 29 30 31 31 32 32 31 31 32 32 32 32 32 31 31 31 31 31 31 31 30 30 30 30 29 29 29 28 28 28 28 28 28 28 28 28 28 28 28 28 28
25 25 24 23 24 25 26 28 29 30 31 32 33 32 32 32 32 33 33 33 33 33 33 33 33 33 33 32 32 32 31 31 31 31 31 31 30 30 30 30 30 30 30 30 30 30 30 30 30
26 26 24 24 24 25 26 27 28 29 30 31 32 32 32 33 33 34 34 34 34 34 34 34 34 34 34 34 34 33 33 33 33 33 33 33 32 32 32 32 32 32 33 33 33 33 33 32 32
26 25 24 25 25 26 26 27 28 29 29 30 32 33 33 33 33 34 34 34 35 35 35 35 35 35 35 35 35 35 35 35 35 34 34 34 34 34 35 34 34 35 35 35 36 36 36 35 35
26 25 25 25 26 26 27 27 28 28 29 30 31 32 33 34 34 34 34 35 35 35 36 35 36 36 36 36 36 37 37 37 37 36 36 36 36 37 37 37 37 37 37 38 38 38 38 38 38
27 26 27 27 27 27 27 27 28 28 29 30 31 32 33 33 34 34 35 35 36 36 36 36 36 37 37 37 37 37 37 37 37 38 38 38 38 38 39 39 40 40 40 40 40 40 40 40 40
29 28 28 28 28 28 28 28 28 28 30 31 32 32 33 33 33 34 34 35 35 36 36 37 37 37 38 38 38 38 38 38 38 39 39 39 40 40 41 41 41 42 42 43 42 42 43 42 42
30 30 30 30 30 30 30 30 29 28 31 32 32 33 33 33 34 34 35 35 35 36 36 37 38 38 39 39 39 39 40 40 41 41 41 42 42 43 43 44 44 44 45 45 45 44 44 44 44
32 31 31 31 31 31 32 31 29 30 32 32 33 33 34 34 35 35 35 36 36 36 37 38 38 39 40 40 41 42 42 43 43 44 44 44 44 45 45 46 46 47 47 47 47 47 47 47 47
34 33 32 31 32 32 33 31 29 31 32 33 33 34 36 36 37 37 37 36 37 37 38 39 40 40 41 42 43 43 44 44 45 46 46 46 46 47 47 48 48 49 49 49 49 49 49 49 49
36 35 34 33 33 33 34 32 31 32 33 33 34 35 36 36 36 37 37 38 38 38 39 40 41 42 43 43 44 45 45 46 47 47 48 48 48 49 49 50 50 51 51 51 51 51 51 51 52
38 37 36 35 35 35 35 34 33 34 34 34 34 35 35 35 36 37 37 38 39 39 40 41 42 43 44 44 45 45 45 46 47 47 48 49 50 50 51 51 52 52 53 53 53 53 53 53 53
40 39 37 37 37 37 37 35 35 35 35 35 35 36 36 36 37 37 38 39 40 40 41 42 42 43 44 44 44 45 45 46 47 47 49 50 51 52 52 53 54 54 54 55 55 56 56 56 56
40 39 39 39 39 39 39 37 36 37 36 36 36 36 37 37 38 39 40 40 41 41 42 43 43 44 45 45 46 46 47 47 48 48 49 50 51 52 54 54 55 56 56 56 57 57 57 57 57
41 40 39 40 40 41 41 39 37 37 37 37 37 37 37 38 38 40 41 41 41 42 43 44 45 45 46 47 47 47 48 49 49 49 49 50 51 53 54 55 56 57 57 58 58 59 59 59 59
42 41 41 42 42 43 42 42 37 37 37 37 37 37 38 38 39 40 41 42 42 43 44 45 45 46 47 48 48 49 49 49 50 50 51 51 53 54 56 56 57 57 58 59 59 60 61 61 60
43 43 43 43 44 45 43 44 40 38 37 37 37 38 39 40 40 41 42 43 43 44 45 45 46 47 48 48 49 50 50 51 52 52 53 53 54 56 57 57 57 57 58 59 60 61 61 61 60
44 44 44 45 45 47 43 44 43 39 38 38 39 40 40 40 41 42 43 43 44 45 46 46 46 47 48 49 50 51 52 52 53 54 55 55 56 57 57 57 57 58 58 58 58 58 58 59 59
44 44 44 45 46 47 44 44 44 41 39 39 40 41 41 42 43 43 43 43 44 45 46 47 47 47 48 49 50 51 52 53 54 55 56 56 57 57 57 56 56 56 55 55 55 55 55 56 57
43 43 44 45 46 46 45 44 43 42 41 40 40 41 42 42 43 43 43 44 44 45 45 45 46 48 49 50 51 51 52 53 54 55 56 56 56 56 55 55 54 54 54 53 53 53 53 54 53
43 43 43 45 47 47 47 45 43 41 41 41 40 41 41 41 42 43 43 44 44 44 45 45 46 47 48 49 50 51 52 52 54 54 55 55 54 53 52 52 52 52 52 52 52 52 51 51 51
43 42 42 43 45 46 47 45 43 41 40 41 41 41 40 41 41 42 42 43 44 44 44 45 46 47 47 49 49 50 50 51 52 53 53 53 51 50 50 50 50 50 50 50 50 50 49 49 48
42 43 43 44 46 46 47 46 44 43 41 41 41 41 40 41 41 41 42 43 43 44 45 45 46 46 47 47 48 48 49 50 50 50 49 49 48 48 48 47 48 49 49 49 48 47 46 46 46
42 43 43 44 45 46 47 48 45 44 43 43 42 42 41 42 42 42 42 41 42 43 44 44 45 46 46 47 47 47 47 47 47 46 46 46 46 46 46 46 47 47 47 47 46 45 45 45 45
Wind_Direction
249 248 247 246 247 247 246 246 246 244 244 244 245 245 245 245 244 245 244 243 243 244 244 245 246 247 247 248 250 251 252 253 253 254 255 256 257 259 260 262 263 264 265 267 268 269 270 272 275
251 250 248 247 248 248 248 247 246 245 244 244 245 245 245 246 245 246 245 244 244 244 245 245 246 248 249 250 251 252 253 254 255 255 256 257 258 259 261 262 263 263 264 266 268 269 270 271 272
253 251 250 250 250 251 249 247 246 245 245 245 245 246 246 246 246 246 246 246 246 246 246 247 247 249 250 251 252 254 254 255 256 257 257 258 258 259 260 262 263 263 264 265 267 269 270 271 272
253 253 252 252 252 251 250 248 247 246 246 245 245 246 246 246 246 247 247 247 248 248 248 249 249 249 251 252 253 254 255 256 257 258 259 260 260 260 261 262 262 263 264 265 267 269 270 272 273
254 253 253 253 252 251 250 249 248 248 247 246 246 247 247 247 248 249 250 250 250 250 250 251 251 251 252 253 254 255 256 257 258 259 260 260 260 261 261 262 264 264 265 265 267 269 270 272 274
253 254 254 253 252 251 250 249 248 248 248 248 247 247 247 248 250 251 252 252 252 251 252 252 253 253 253 254 255 255 256 257 258 259 260 261 261 262 262 263 264 265 265 266 267 269 270 271 272
254 254 254 253 252 252 251 250 249 249 248 249 249 249 248 249 249 251 252 252 253 253 253 253 253 254 255 255 255 256 257 258 258 260 261 261 261 262 263 264 265 266 266 266 267 269 269 270 271
253 254 254 254 254 253 251 251 250 250 250 250 250 250 250 249 250 250 251 252 253 254 253 253 253 254 255 256 256 256 258 258 259 260 261 262 262 262 263 264 265 266 267 268 269 269 270 271 271
253 254 255 255 254 253 253 252 251 250 250 251 251 251 251 251 251 251 251 252 253 254 254 253 253 253 254 256 257 258 258 259 259 260 261 261 262 263 264 265 265 266 267 268 269 270 270 271 271
254 255 255 255 254 253 253 253 253 253 252 252 252 252 251 251 252 252 253 253 253 253 253 253 253 254 255 256 258 259 260 260 261 261 261 262 263 264 265 266 267 267 267 268 269 270 270 270 270
254 255 254 255 255 255 254 255 255 255 254 254 254 253 253 253 253 253 253 253 253 253 253 254 254 254 255 256 258 259 260 261 262 261 262 263 264 265 266 267 267 268 268 269 270 270 271 270 270
254 254 254 254 256 256 256 257 257 256 256 254 254 254 254 254 254 254 254 254 254 254 254 254 255 255 256 257 258 259 260 261 262 263 263 264 265 265 266 267 268 268 268 268 269 269 270 270 269
254 255 255 255 256 257 258 259 259 258 257 255 255 255 255 256 256 256 256 256 256 255 254 254 254 255 256 257 259 260 261 262 263 264 265 265 266 266 267 268 269 269 268 268 268 268 268 268 268
255 255 256 257 258 259 260 260 261 260 259 257 256 256 256 256 257 257 257 257 257 256 255 255 256 257 258 259 260 261 262 263 264 265 266 267 267 267 267 267 268 268 269 268 268 267 267 267 267
255 256 257 258 259 260 261 261 263 261 260 259 258 258 257 257 258 258 258 258 257 256 257 257 257 258 259 260 261 262 263 265 266 266 267 268 268 268 268 268 268 268 268 268 267 266 266 266 266
255 256 258 259 260 261 262 263 263 262 261 262 261 259 259 258 258 258 258 259 258 258 258 258 259 260 261 261 262 263 264 266 267 267 268 268 269 269 269 269 269 269 269 269 268 267 266 266 266
256 258 258 259 260 261 262 263 263 263 263 263 262 261 260 259 259 260 260 260 259 260 260 260 261 262 263 263 263 264 265 266 267 268 268 269 270 270 270 270 270 269 269 269 269 267 267 266 266
258 258 258 259 259 260 261 263 263 264 264 264 263 262 260 259 260 260 260 261 260 260 261 261 262 263 264 264 265 265 266 267 268 269 269 269 270 270 270 270 270 270 270 270 269 268 268 267 266
257 258 259 259 260 260 261 262 264 265 265 265 264 263 261 261 261 261 262 262 262 262 262 263 264 264 265 265 266 266 267 268 269 270 270 270 271 271 271 271 271 271 270 270 269 269 268 267 266
258 259 260 260 260 261 261 262 263 265 265 265 264 263 263 263 263 263 263 264 263 263 264 265 265 266 267 267 267 268 268 269 270 271 271 271 272 273 273 272 272 272 271 270 269 269 268 268 267
258 259 260 261 262 262 263 261 262 263 265 265 264 264 263 264 264 265 265 265 263 263 264 265 266 267 268 268 268 269 270 270 270 271 272 272 272 273 274 274 273 272 271 271 270 270 269 268 267
258 259 260 261 261 263 263 263 260 262 264 265 265 265 264 265 265 266 266 266 264 265 265 267 267 268 268 269 270 270 270 270 271 272 272 273 274 275 276 276 276 274 273 272 271 270 269 268 267
258 258 259 260 261 262 263 264 261 261 263 264 265 266 266 266 266 267 267 266 266 266 267 267 268 269 269 270 271 271 271 271 272 272 273 274 275 275 276 276 276 275 274 273 271 270 269 268 267
257 258 259 260 261 262 262 264 264 264 265 265 265 266 266 267 268 268 268 267 267 268 268 269 269 269 270 271 272 272 272 272 273 273 273 274 276 276 276 276 276 276 275 274 272 270 269 268 267
255 257 259 260 261 263 263 263 265 266 267 267 266 266 267 268 269 269 267 268 268 268 269 270 270 270 271 271 272 273 274 274 274 274 275 275 276 276 276 275 275 275 275 273 272 271 270 268 267
255 256 258 261 263 264 263 264 265 267 269 269 268 269 270 269 269 269 269 268 268 270 271 271 270 270 271 271 272 274 275 275 275 275 276 276 277 277 277 276 275 275 274 273 272 271 270 269 268
252 254 257 260 262 264 263 264 265 268 270 270 270 271 272 271 270 270 271 270 270 271 271 271 271 271 272 272 273 275 276 276 276 276 276 276 276 276 276 276 275 274 273 272 271 271 270 269 267
252 253 255 258 261 263 264 264 265 266 268 269 271 273 273 272 271 271 270 271 271 270 271 272 272 272 273 274 275 276 277 277 277 277 276 275 275 275 276 276 275 274 273 271 271 271 270 269 266
252 253 255 257 259 263 265 265 265 268 269 270 271 272 272 272 272 272 272 272 272 271 272 272 272 273 274 275 276 277 278 278 278 278 277 275 275 275 276 275 274 273 273 272 271 270 269 267 265
253 254 256 258 260 262 264 264 266 268 268 270 272 273 272 272 272 272 272 271 272 272 272 272 273 274 275 276 277 278 278 278 277 277 275 274 275 277 277 276 274 273 273 271 270 268 267 266 265